Location: Augsburg
(48.3836°N, 10.8929°E)
Time: 09:12:13
(UTC+02:00)

Tiangong 2 - Visible Passes

Search period start: 23 May 2018 00:00
Search period end: 02 June 2018 00:00
Orbit: 382 x 385 km, 42.8° (Epoch: 23 May)

Date Brightness Start Highest point End Pass type
(mag) Time Alt. Az. Time Alt. Az. Time Alt. Az.
23 May 2.2 22:34:47 10° SW 22:37:25 24° SSE 22:37:45 24° SSE visible
24 May 2.3 23:11:14 10° WSW 23:13:17 26° SSW 23:13:17 26° SSW visible
25 May 2.1 22:11:37 10° SW 22:14:23 28° S 22:16:23 15° ESE visible
25 May 3.5 23:48:01 10° WSW 23:48:34 13° WSW 23:48:34 13° WSW visible
26 May 2.1 22:48:14 10° WSW 22:51:00 28° S 22:51:30 26° SSE visible
27 May 2.1 21:48:32 10° WSW 21:51:19 29° S 21:54:07 10° ESE visible
27 May 3.1 23:25:11 10° WSW 23:26:31 17° SW 23:26:31 17° SW visible
28 May 2.4 22:25:17 10° WSW 22:27:55 24° SSW 22:29:18 18° SSE visible
29 May 3.2 23:02:32 10° WSW 23:04:13 15° SSW 23:04:13 15° SSW visible
30 May 2.8 22:02:24 10° WSW 22:04:47 20° SSW 22:06:56 11° SSE visible
31 May 3.6 22:40:46 10° SW 22:41:10 10° SSW 22:41:33 10° SSW visible
